Time,TemperatureF,DewpointF,PressureIn,WindDirection,WindDirectionDegrees,WindSpeedMPH,WindSpeedGustMPH,Humidity,HourlyPrecipIn,Conditions,Clouds,dailyrainin,SoftwareType,DateUTC
2013-11-04 00:03:00,77.4,72.5,29.86,West,270,1.6,-999.0,85,-99.99,,,0.00,Acu-Link.com,2013-11-04 04:03:00,
2013-11-04 00:18:00,77.4,72.5,29.85,SE,135,4.3,-999.0,85,-99.99,,,0.00,Acu-Link.com,2013-11-04 04:18:00,
2013-11-04 00:33:00,77.2,72.3,29.85,SSE,157,1.1,-999.0,85,-99.99,,,0.00,Acu-Link.com,2013-11-04 04:33:00,
2013-11-04 00:48:00,77.0,72.5,29.84,NNE,22,0.0,-999.0,86,-99.99,,,0.00,Acu-Link.com,2013-11-04 04:48:00,
2013-11-04 01:04:00,76.6,72.1,29.83,SSE,157,2.2,-999.0,86,-99.99,,,0.00,Acu-Link.com,2013-11-04 05:04:00,
2013-11-04 01:19:00,76.8,72.3,29.83,ESE,112,2.2,-999.0,86,-99.99,,,0.00,Acu-Link.com,2013-11-04 05:19:00,
2013-11-04 01:34:00,76.6,72.1,29.82,SE,135,3.1,-999.0,86,-99.99,,,0.00,Acu-Link.com,2013-11-04 05:34:00,
2013-11-04 01:49:00,76.5,72.3,29.82,SSE,157,1.6,-999.0,87,-99.99,,,0.00,Acu-Link.com,2013-11-04 05:49:00,
2013-11-04 02:04:00,76.5,72.3,29.81,SE,135,2.7,-999.0,87,-99.99,,,0.00,Acu-Link.com,2013-11-04 06:04:00,
2013-11-04 02:19:00,76.5,72.3,29.81,SW,225,1.6,-999.0,87,-99.99,,,0.00,Acu-Link.com,2013-11-04 06:19:00,
2013-11-04 02:35:00,76.5,72.3,29.81,SW,225,4.7,-999.0,87,-99.99,,,0.00,Acu-Link.com,2013-11-04 06:35:00,
2013-11-04 02:50:00,76.5,72.3,29.80,SSW,202,3.1,-999.0,87,-99.99,,,0.00,Acu-Link.com,2013-11-04 06:50:00,
2013-11-04 03:05:00,76.3,72.1,29.80,SW,225,4.3,-999.0,87,-99.99,,,0.00,Acu-Link.com,2013-11-04 07:05:00,
2013-11-04 03:20:00,76.3,72.1,29.80,SSW,202,1.6,-999.0,87,-99.99,,,0.00,Acu-Link.com,2013-11-04 07:20:00,
2013-11-04 03:35:00,76.3,72.1,29.80,ESE,112,0.0,-999.0,87,-99.99,,,0.00,Acu-Link.com,2013-11-04 07:35:00,
2013-11-04 03:51:00,76.1,71.9,29.80,SSW,202,1.1,-999.0,87,-99.99,,,0.00,Acu-Link.com,2013-11-04 07:51:00,
2013-11-04 04:06:00,76.1,72.3,29.81,South,180,2.7,-999.0,88,-99.99,,,0.00,Acu-Link.com,2013-11-04 08:06:00,
2013-11-04 04:21:00,75.9,72.1,29.81,West,270,0.0,-999.0,88,-99.99,,,0.00,Acu-Link.com,2013-11-04 08:21:00,
2013-11-04 04:36:00,75.9,72.1,29.81,NW,315,0.0,-999.0,88,-99.99,,,0.00,Acu-Link.com,2013-11-04 08:36:00,
2013-11-04 04:51:00,75.9,72.1,29.81,WSW,247,1.1,-999.0,88,-99.99,,,0.00,Acu-Link.com,2013-11-04 08:51:00,
2013-11-04 05:06:00,75.9,72.1,29.81,West,270,0.0,-999.0,88,-99.99,,,0.00,Acu-Link.com,2013-11-04 09:06:00,
2013-11-04 05:21:00,76.1,72.3,29.81,South,180,0.0,-999.0,88,-99.99,,,0.00,Acu-Link.com,2013-11-04 09:21:00,
2013-11-04 05:37:00,76.1,72.3,29.81,WSW,247,0.0,-999.0,88,-99.99,,,0.00,Acu-Link.com,2013-11-04 09:37:00,
2013-11-04 05:52:00,75.9,72.1,29.81,SW,225,0.0,-999.0,88,-99.99,,,0.00,Acu-Link.com,2013-11-04 09:52:00,
2013-11-04 06:07:00,75.7,71.9,29.81,SSW,202,2.7,-999.0,88,-99.99,,,0.00,Acu-Link.com,2013-11-04 10:07:00,
2013-11-04 06:22:00,75.7,72.3,29.82,SSE,157,1.1,-999.0,89,-99.99,,,0.00,Acu-Link.com,2013-11-04 10:22:00,
2013-11-04 06:37:00,75.4,71.9,29.83,SSE,157,1.1,-999.0,89,-99.99,,,0.00,Acu-Link.com,2013-11-04 10:37:00,
2013-11-04 06:53:00,75.6,72.1,29.83,WSW,247,1.6,-999.0,89,-99.99,,,0.00,Acu-Link.com,2013-11-04 10:53:00,
2013-11-04 07:08:00,76.1,72.3,29.84,ESE,112,2.7,-999.0,88,-99.99,,,0.00,Acu-Link.com,2013-11-04 11:08:00,
2013-11-04 07:23:00,76.8,72.6,29.84,South,180,4.3,-999.0,87,-99.99,,,0.00,Acu-Link.com,2013-11-04 11:23:00,
2013-11-04 07:38:00,77.5,73.0,29.85,South,180,3.1,-999.0,86,-99.99,,,0.00,Acu-Link.com,2013-11-04 11:38:00,
2013-11-04 07:53:00,78.1,72.8,29.85,SSE,157,2.7,-999.0,84,-99.99,,,0.00,Acu-Link.com,2013-11-04 11:53:00,
2013-11-04 08:09:00,79.3,73.7,29.86,ESE,112,2.2,-999.0,83,-99.99,,,0.00,Acu-Link.com,2013-11-04 12:09:00,
2013-11-04 08:24:00,80.4,74.0,29.86,ESE,112,3.1,-999.0,81,-99.99,,,0.00,Acu-Link.com,2013-11-04 12:24:00,
2013-11-04 08:39:00,81.9,74.7,29.87,SW,225,3.8,-999.0,79,-99.99,,,0.00,Acu-Link.com,2013-11-04 12:39:00,
2013-11-04 08:54:00,82.6,75.0,29.87,ESE,112,3.8,-999.0,78,-99.99,,,0.00,Acu-Link.com,2013-11-04 12:54:00,
2013-11-04 09:09:00,83.7,75.3,29.87,SSW,202,5.8,-999.0,76,-99.99,,,0.00,Acu-Link.com,2013-11-04 13:09:00,
2013-11-04 09:24:00,84.4,75.2,29.88,SSE,157,4.7,-999.0,74,-99.99,,,0.00,Acu-Link.com,2013-11-04 13:24:00,
2013-11-04 09:40:00,85.8,74.9,29.87,South,180,5.1,-999.0,70,-99.99,,,0.00,Acu-Link.com,2013-11-04 13:40:00,
2013-11-04 09:55:00,86.2,74.4,29.87,ESE,112,5.1,-999.0,68,-99.99,,,0.00,Acu-Link.com,2013-11-04 13:55:00,
2013-11-04 10:10:00,86.0,74.2,29.87,ESE,112,4.7,-999.0,68,-99.99,,,0.00,Acu-Link.com,2013-11-04 14:10:00,
2013-11-04 10:25:00,86.5,74.2,29.87,ESE,112,6.3,-999.0,67,-99.99,,,0.00,Acu-Link.com,2013-11-04 14:25:00,
2013-11-04 10:41:00,87.8,75.0,29.87,SSE,157,2.2,-999.0,66,-99.99,,,0.00,Acu-Link.com,2013-11-04 14:41:00,
2013-11-04 10:56:00,88.3,74.1,29.87,SW,225,5.8,-999.0,63,-99.99,,,0.00,Acu-Link.com,2013-11-04 14:56:00,
2013-11-04 11:11:00,88.2,73.9,29.86,NE,45,3.8,-999.0,63,-99.99,,,0.00,Acu-Link.com,2013-11-04 15:11:00,
2013-11-04 11:26:00,89.6,73.8,29.85,ESE,112,5.1,-999.0,60,-99.99,,,0.00,Acu-Link.com,2013-11-04 15:26:00,
2013-11-04 11:41:00,88.9,72.7,29.84,ESE,112,8.9,-999.0,59,-99.99,,,0.00,Acu-Link.com,2013-11-04 15:41:00,
2013-11-04 11:57:00,89.6,72.8,29.83,SE,135,3.8,-999.0,58,-99.99,,,0.00,Acu-Link.com,2013-11-04 15:57:00,
2013-11-04 12:12:00,88.7,74.9,29.83,ESE,112,5.1,-999.0,64,-99.99,,,0.00,Acu-Link.com,2013-11-04 16:12:00,
2013-11-04 12:27:00,88.0,75.6,29.82,ESE,112,6.3,-999.0,67,-99.99,,,0.00,Acu-Link.com,2013-11-04 16:27:00,
2013-11-04 12:42:00,87.4,76.0,29.82,ESE,112,6.3,-999.0,69,-99.99,,,0.00,Acu-Link.com,2013-11-04 16:42:00,
2013-11-04 12:57:00,87.6,76.2,29.81,ESE,112,7.4,-999.0,69,-99.99,,,0.00,Acu-Link.com,2013-11-04 16:57:00,
2013-11-04 13:13:00,87.1,75.6,29.80,ENE,67,6.3,-999.0,69,-99.99,,,0.00,Acu-Link.com,2013-11-04 17:13:00,
2013-11-04 13:28:00,87.1,75.6,29.78,East,90,5.1,-999.0,69,-99.99,,,0.00,Acu-Link.com,2013-11-04 17:28:00,
2013-11-04 13:43:00,87.4,75.5,29.78,East,90,7.4,-999.0,68,-99.99,,,0.00,Acu-Link.com,2013-11-04 17:43:00,
2013-11-04 13:58:00,84.9,74.0,29.78,West,270,5.1,-999.0,70,-99.99,,,0.00,Acu-Link.com,2013-11-04 17:58:00,
2013-11-04 14:13:00,85.3,74.8,29.78,WSW,247,5.1,-999.0,71,-99.99,,,0.00,Acu-Link.com,2013-11-04 18:13:00,
2013-11-04 14:28:00,85.3,75.6,29.78,WSW,247,7.8,-999.0,73,-99.99,,,0.00,Acu-Link.com,2013-11-04 18:28:00,
2013-11-04 14:44:00,84.6,74.1,29.77,West,270,6.7,-999.0,71,-99.99,,,0.00,Acu-Link.com,2013-11-04 18:44:00,
2013-11-04 14:59:00,84.2,73.8,29.78,WNW,292,4.7,-999.0,71,-99.99,,,0.00,Acu-Link.com,2013-11-04 18:59:00,
2013-11-04 15:14:00,83.5,73.5,29.77,WSW,247,5.8,-999.0,72,-99.99,,,0.00,Acu-Link.com,2013-11-04 19:14:00,
2013-11-04 15:29:00,82.0,74.5,29.78,West,270,4.3,-999.0,78,-99.99,,,0.01,Acu-Link.com,2013-11-04 19:29:00,
2013-11-04 15:44:00,82.6,74.6,29.78,West,270,3.1,-999.0,77,-99.99,,,0.01,Acu-Link.com,2013-11-04 19:44:00,
2013-11-04 16:00:00,82.6,74.6,29.77,NNE,22,4.7,-999.0,77,-99.99,,,0.01,Acu-Link.com,2013-11-04 20:00:00,
2013-11-04 16:15:00,83.7,75.3,29.78,NW,315,6.7,-999.0,76,-99.99,,,0.01,Acu-Link.com,2013-11-04 20:15:00,
2013-11-04 16:30:00,81.5,75.8,29.78,NW,315,5.8,-999.0,83,-99.99,,,0.01,Acu-Link.com,2013-11-04 20:30:00,
2013-11-04 16:45:00,80.6,74.9,29.79,NW,315,2.2,-999.0,83,-99.99,,,0.01,Acu-Link.com,2013-11-04 20:45:00,
2013-11-04 17:01:00,80.8,74.8,29.79,North,0,3.8,-999.0,82,-99.99,,,0.01,Acu-Link.com,2013-11-04 21:01:00,
2013-11-04 17:16:00,79.7,74.1,29.80,NNE,22,5.8,-999.0,83,-99.99,,,0.01,Acu-Link.com,2013-11-04 21:16:00,
2013-11-04 17:31:00,80.1,74.4,29.79,West,270,1.6,-999.0,83,-99.99,,,0.01,Acu-Link.com,2013-11-04 21:31:00,
2013-11-04 17:46:00,79.9,74.2,29.80,NNW,337,3.8,-999.0,83,-99.99,,,0.01,Acu-Link.com,2013-11-04 21:46:00,
2013-11-04 18:01:00,79.5,73.9,29.81,West,270,2.7,-999.0,83,-99.99,,,0.01,Acu-Link.com,2013-11-04 22:01:00,
2013-11-04 18:17:00,79.5,74.2,29.81,SW,225,3.8,-999.0,84,-99.99,,,0.01,Acu-Link.com,2013-11-04 22:17:00,
2013-11-04 18:32:00,79.0,75.5,29.81,West,270,2.2,-999.0,89,-99.99,,,0.01,Acu-Link.com,2013-11-04 22:32:00,
2013-11-04 18:47:00,78.1,74.2,29.81,WNW,292,5.1,-999.0,88,-99.99,,,0.01,Acu-Link.com,2013-11-04 22:47:00,
2013-11-04 19:02:00,77.9,74.0,29.81,WNW,292,3.1,-999.0,88,-99.99,,,0.01,Acu-Link.com,2013-11-04 23:02:00,
2013-11-04 19:17:00,77.4,73.5,29.82,NW,315,3.8,-999.0,88,-99.99,,,0.01,Acu-Link.com,2013-11-04 23:17:00,
2013-11-04 19:32:00,77.2,73.0,29.82,West,270,3.1,-999.0,87,-99.99,,,0.01,Acu-Link.com,2013-11-04 23:32:00,
2013-11-04 19:47:00,77.0,72.8,29.83,NNW,337,2.7,-999.0,87,-99.99,,,0.01,Acu-Link.com,2013-11-04 23:47:00,
2013-11-04 20:03:00,77.0,72.8,29.84,WSW,247,2.2,-999.0,87,-99.99,,,0.01,Acu-Link.com,2013-11-05 00:03:00,
2013-11-04 20:18:00,77.2,73.0,29.84,SE,135,0.0,-999.0,87,-99.99,,,0.01,Acu-Link.com,2013-11-05 00:18:00,
2013-11-04 20:33:00,77.4,72.8,29.85,West,270,2.2,-999.0,86,-99.99,,,0.01,Acu-Link.com,2013-11-05 00:33:00,
2013-11-04 20:48:00,77.0,72.8,29.85,West,270,2.7,-999.0,87,-99.99,,,0.01,Acu-Link.com,2013-11-05 00:48:00,
2013-11-04 21:04:00,77.0,72.8,29.86,West,270,2.2,-999.0,87,-99.99,,,0.01,Acu-Link.com,2013-11-05 01:04:00,
2013-11-04 21:19:00,77.2,73.0,29.86,West,270,1.1,-999.0,87,-99.99,,,0.01,Acu-Link.com,2013-11-05 01:19:00,
2013-11-04 21:34:00,77.2,73.0,29.86,SW,225,2.2,-999.0,87,-99.99,,,0.01,Acu-Link.com,2013-11-05 01:34:00,
2013-11-04 21:49:00,77.2,73.0,29.85,WSW,247,2.2,-999.0,87,-99.99,,,0.01,Acu-Link.com,2013-11-05 01:49:00,
2013-11-04 22:04:00,77.2,73.0,29.87,SW,225,1.6,-999.0,87,-99.99,,,0.01,Acu-Link.com,2013-11-05 02:04:00,
2013-11-04 22:20:00,77.5,73.4,29.87,SSW,202,1.1,-999.0,87,-99.99,,,0.01,Acu-Link.com,2013-11-05 02:20:00,
2013-11-04 22:35:00,77.5,73.4,29.87,WSW,247,2.2,-999.0,87,-99.99,,,0.01,Acu-Link.com,2013-11-05 02:35:00,
2013-11-04 22:50:00,77.5,73.4,29.87,WNW,292,2.2,-999.0,87,-99.99,,,0.01,Acu-Link.com,2013-11-05 02:50:00,
2013-11-04 23:05:00,77.9,73.7,29.87,ESE,112,1.1,-999.0,87,-99.99,,,0.01,Acu-Link.com,2013-11-05 03:05:00,
2013-11-04 23:21:00,78.1,73.9,29.86,SW,225,2.2,-999.0,87,-99.99,,,0.01,Acu-Link.com,2013-11-05 03:21:00,
2013-11-04 23:36:00,77.5,74.0,29.87,WSW,247,0.0,-999.0,89,-99.99,,,0.02,Acu-Link.com,2013-11-05 03:36:00,
2013-11-04 23:51:00,77.4,74.2,29.86,WNW,292,1.6,-999.0,90,-99.99,,,0.02,Acu-Link.com,2013-11-05 03:51:00,